period_start,C,m1,H,J0,J1,J2,J3,J4,J5,JA,JB,JC,JD,JJ,JK,JN,#
2014-02-19 00:00:08,0.35,3.41,0.00,20.97,26.22,29.25,6.18,32.21,1034.65,2041.97,2355.04,2456.39,2661.18,350.01,331.63,15.02,0000 0000 0000 0000 000000
2014-02-19 00:01:08,0.29,3.41,0.00,20.97,26.22,29.17,6.23,32.21,1034.66,2041.97,2354.48,2456.14,2661.04,350.29,332.49,15.02,0000 0000 0000 0000 000000
2014-02-19 00:02:08,0.24,3.41,0.00,20.97,26.22,29.14,6.11,32.25,1034.68,2041.97,2354.16,2455.99,2660.61,349.30,331.33,15.03,0000 0000 0000 0000 000000
2014-02-19 00:03:09,0.21,3.42,0.00,20.97,26.22,29.18,6.22,32.25,1034.65,2041.97,2353.80,2455.60,2660.23,350.53,332.50,15.04,0000 0000 0000 0000 000000
2014-02-19 00:04:09,0.28,3.42,0.00,20.97,26.22,29.25,6.03,32.08,1034.64,2041.97,2353.33,2455.23,2660.08,348.91,330.89,15.04,0000 0000 0000 0000 000000
2014-02-19 00:05:09,0.27,3.42,0.00,20.97,26.22,29.19,6.24,32.08,1034.63,2041.94,2353.05,2455.07,2659.85,350.20,332.20,15.05,0000 0000 0000 0000 000000
2014-02-19 00:06:09,0.10,3.42,0.00,20.97,26.22,29.17,6.46,32.21,1034.61,2041.96,2352.51,2454.78,2659.36,350.98,332.90,15.05,0000 0000 0000 0000 000000
2014-02-19 00:07:10,0.39,3.42,0.00,20.97,26.21,29.21,6.22,32.17,1034.58,2041.97,2352.18,2454.30,2659.13,350.41,332.35,15.06,0000 0000 0000 0000 000000
2014-02-19 00:08:10,0.27,3.42,0.00,20.96,26.20,29.22,6.15,32.25,1034.59,2041.96,2351.92,2454.11,2659.00,349.95,331.79,15.06,0000 0000 0000 0000 000000
2014-02-19 00:09:10,0.11,3.42,0.00,20.96,26.20,29.20,6.26,32.08,1034.61,2041.96,2351.39,2454.01,2658.54,350.09,331.96,15.07,0000 0000 0000 0000 000000
2014-02-19 00:10:10,0.28,3.43,0.00,20.95,26.20,29.15,6.25,32.17,1034.57,2041.98,2351.12,2453.63,2658.19,350.20,332.17,15.08,0000 0000 0000 0000 000000
2014-02-19 00:11:11,0.26,3.43,0.00,20.95,26.20,29.18,6.10,32.29,1034.47,2041.97,2350.67,2453.24,2658.05,349.96,331.83,15.08,0000 0000 0000 0000 000000
2014-02-19 00:12:11,0.25,3.43,0.00,20.95,26.20,29.14,6.21,32.38,1034.46,2041.97,2350.25,2453.08,2657.67,350.48,332.67,15.09,0000 0000 0000 0000 000000
2014-02-19 00:13:11,0.23,3.43,0.00,20.94,26.20,29.18,6.27,32.33,1034.47,2041.99,2350.02,2452.94,2657.26,350.04,332.00,15.09,0000 0000 0000 0000 000000
2014-02-19 00:14:12,0.14,3.43,0.00,20.96,26.20,29.15,6.18,32.13,1034.39,2041.99,2349.52,2452.45,2657.09,350.12,332.04,15.10,0000 0000 0000 0000 000000
2014-02-19 00:15:12,0.34,3.43,0.00,20.95,26.19,29.09,6.07,32.13,1034.37,2041.99,2349.19,2452.16,2656.76,349.33,331.28,15.11,0000 0000 0000 0000 000000
2014-02-19 00:16:12,0.22,3.43,0.00,20.95,26.19,29.09,6.28,32.17,1034.38,2041.99,2348.95,2452.04,2656.30,350.60,332.50,15.11,0000 0000 0000 0000 000000
2014-02-19 00:17:12,0.18,3.44,0.00,20.94,26.18,29.17,6.32,32.17,1034.31,2041.99,2348.42,2451.84,2656.11,350.98,332.83,15.12,0000 0000 0000 0000 000000
2014-02-19 00:18:13,0.24,3.44,0.00,20.94,26.18,29.17,6.07,32.08,1034.25,2041.99,2348.15,2451.37,2655.96,349.65,331.64,15.12,0000 0000 0000 0000 000000
2014-02-19 00:19:13,0.26,3.44,0.00,20.94,26.17,29.17,6.16,32.17,1034.22,2041.98,2347.88,2451.13,2655.53,349.67,331.96,15.13,0000 0000 0000 0000 000000
2014-02-19 00:20:13,0.20,3.44,0.00,20.94,26.17,29.13,6.14,32.13,1034.25,2041.99,2347.35,2451.01,2655.20,349.23,331.16,15.13,0000 0000 0000 0000 000000
2014-02-19 00:21:14,0.23,3.44,0.00,20.94,26.17,29.11,6.22,32.25,1034.22,2041.99,2347.08,2450.56,2654.97,350.63,332.68,15.14,0000 0000 0000 0000 000000
2014-02-19 00:22:14,0.27,3.44,0.00,20.94,26.17,29.11,6.36,32.04,1034.20,2041.99,2346.53,2450.21,2654.51,350.65,332.74,15.15,0000 0000 0000 0000 000000
2014-02-19 00:23:14,0.33,3.44,0.00,20.94,26.17,29.15,6.20,32.21,1034.20,2041.99,2346.19,2450.05,2654.19,350.15,332.03,15.15,0000 0000 0000 0000 000000
2014-02-19 00:24:14,0.19,3.45,0.00,20.93,26.17,29.15,6.31,32.17,1034.22,2041.99,2345.80,2449.70,2654.00,350.27,332.11,15.16,0000 0000 0000 0000 000000
2014-02-19 00:25:14,0.26,3.45,0.00,20.92,26.17,29.14,6.08,32.25,1034.20,2041.99,2345.32,2449.28,2653.53,349.66,331.07,15.16,0000 0000 0000 0000 000000
2014-02-19 00:26:15,0.33,3.45,0.00,20.92,26.16,29.13,6.37,32.13,1034.20,2041.98,2345.07,2449.10,2653.21,350.43,332.04,15.17,0000 0000 0000 0000 000000
2014-02-19 00:27:15,0.17,3.45,0.00,20.92,26.16,29.09,6.13,32.17,1034.20,2041.99,2344.56,2448.95,2653.05,349.88,331.65,15.18,0000 0000 0000 0000 000000
2014-02-19 00:28:15,0.22,3.45,0.00,20.92,26.15,29.12,6.12,32.17,1034.20,2041.99,2344.20,2448.46,2652.69,348.83,330.85,15.18,0000 0000 0000 0000 000000
2014-02-19 00:29:16,0.32,3.45,0.00,20.92,26.15,29.10,6.13,32.21,1034.21,2041.99,2343.90,2448.18,2652.27,350.48,332.13,15.19,0000 0000 0000 0000 000000
2014-02-19 00:30:16,0.23,3.45,0.00,20.91,26.15,29.07,6.32,32.21,1034.20,2041.99,2343.39,2448.06,2652.09,350.60,332.57,15.19,0000 0000 0000 0000 000000
2014-02-19 00:31:16,0.20,3.46,0.00,20.92,26.15,29.10,6.28,32.25,1034.20,2041.99,2343.11,2447.74,2651.76,350.42,332.05,15.20,0000 0000 0000 0000 000000
2014-02-19 00:32:16,0.24,3.46,0.00,20.91,26.15,29.07,5.96,32.17,1034.20,2041.99,2342.61,2447.28,2651.31,350.20,332.10,15.20,0000 0000 0000 0000 000000
2014-02-19 00:33:17,0.35,3.46,0.00,20.91,26.15,29.12,6.13,32.21,1034.22,2041.99,2342.22,2447.10,2651.10,350.25,332.15,15.21,0000 0000 0000 0000 000000
2014-02-19 00:34:17,0.18,3.46,0.00,20.90,26.15,29.17,6.05,32.13,1034.21,2041.99,2341.91,2446.96,2650.90,349.57,331.51,15.22,0000 0000 0000 0000 000000
2014-02-19 00:35:17,0.16,3.46,0.00,20.90,26.15,29.11,6.25,32.13,1034.20,2041.99,2341.38,2446.50,2650.43,349.94,331.88,15.22,0000 0000 0000 0000 000000
2014-02-19 00:36:17,0.39,3.46,0.00,20.89,26.14,29.13,6.29,32.08,1034.20,2041.99,2341.11,2446.18,2650.15,349.99,331.92,15.23,0000 0000 0000 0000 000000
2014-02-19 00:37:18,0.21,3.47,0.00,20.89,26.13,29.12,6.24,32.29,1034.21,2041.99,2340.66,2446.04,2649.98,350.52,332.42,15.23,0000 0000 0000 0000 000000
2014-02-19 00:38:18,0.20,3.47,0.00,20.89,26.13,29.08,6.23,32.13,1034.21,2041.99,2340.24,2445.67,2649.49,350.45,332.37,15.24,0000 0000 0000 0000 000000
2014-02-19 00:39:18,0.31,3.47,0.00,20.89,26.12,29.11,6.20,32.08,1034.20,2041.99,2340.02,2445.25,2649.18,349.23,331.20,15.25,0000 0000 0000 0000 000000
2014-02-19 00:40:18,0.24,3.47,0.00,20.89,26.12,29.18,6.20,32.29,1034.20,2041.99,2339.48,2445.09,2649.06,349.79,331.90,15.25,0000 0000 0000 0000 000000
2014-02-19 00:41:19,0.20,3.47,0.00,20.89,26.12,29.09,6.30,32.25,1034.20,2041.99,2339.17,2444.98,2648.67,350.21,332.14,15.26,0000 0000 0000 0000 000000
2014-02-19 00:42:19,0.20,3.47,0.00,20.89,26.12,29.12,6.20,32.13,1034.22,2042.00,2338.77,2444.50,2648.26,349.96,332.19,15.26,0000 0000 0000 0000 000000
2014-02-19 00:43:19,0.33,3.47,0.00,20.88,26.12,29.17,6.43,32.25,1034.21,2042.00,2338.30,2444.18,2648.08,350.33,331.86,15.27,0000 0000 0000 0000 000000
2014-02-19 00:44:20,0.24,3.48,0.00,20.87,26.12,29.15,6.33,32.13,1034.20,2042.00,2338.07,2444.06,2647.79,351.34,333.23,15.28,0000 0000 0000 0000 000000
2014-02-19 00:45:20,0.17,3.48,0.00,20.87,26.12,29.11,6.17,32.21,1034.21,2042.00,2337.57,2443.75,2647.34,349.88,331.84,15.28,0000 0000 0000 0000 000000
2014-02-19 00:46:20,0.31,3.48,0.00,20.87,26.12,29.12,6.17,32.21,1034.20,2042.00,2337.20,2443.30,2647.12,350.09,332.43,15.29,0000 0000 0000 0000 000000
2014-02-19 00:47:20,0.28,3.48,0.00,20.87,26.11,29.11,6.20,32.29,1034.20,2042.00,2336.84,2443.10,2646.77,350.77,332.69,15.29,0000 0000 0000 0000 000000
2014-02-19 00:48:21,0.21,3.48,0.00,20.87,26.10,29.14,6.24,32.25,1034.20,2042.00,2336.33,2442.89,2646.30,349.73,331.70,15.30,0000 0000 0000 0000 000000
2014-02-19 00:49:21,0.29,3.48,0.00,20.87,26.10,29.12,6.08,32.13,1034.20,2042.00,2336.03,2442.40,2646.11,349.44,331.67,15.30,0000 0000 0000 0000 000000
2014-02-19 00:50:21,0.27,3.48,0.00,20.87,26.10,29.12,6.19,32.21,1034.20,2042.00,2335.47,2442.15,2645.75,349.38,331.12,15.31,0000 0000 0000 0000 000000
2014-02-19 00:51:21,0.28,3.49,0.00,20.86,26.10,29.12,6.22,32.29,1034.20,2042.00,2335.15,2441.89,2645.30,349.82,331.83,15.32,0000 0000 0000 0000 000000
2014-02-19 00:52:22,0.26,3.49,0.00,20.86,26.10,29.13,6.14,32.33,1034.20,2042.00,2334.61,2441.40,2645.08,350.16,332.12,15.32,0000 0000 0000 0000 000000
2014-02-19 00:53:22,0.32,3.49,0.00,20.85,26.10,29.07,6.22,32.17,1034.20,2042.00,2334.23,2441.14,2644.63,350.09,332.06,15.33,0000 0000 0000 0000 000000
2014-02-19 00:54:23,0.23,3.49,0.00,20.85,26.10,29.06,6.15,32.21,1034.20,2042.00,2334.07,2441.04,2644.23,349.55,331.55,15.33,0000 0000 0000 0000 000000
2014-02-19 00:55:23,0.19,3.49,0.00,20.86,26.10,29.07,5.94,32.21,1034.20,2042.00,2333.60,2440.66,2644.07,348.73,330.77,15.34,0000 0000 0000 0000 000000
2014-02-19 00:56:23,0.27,3.49,0.00,20.86,26.10,29.08,6.22,32.21,1034.20,2042.00,2333.21,2440.26,2643.63,350.30,332.25,15.35,0000 0000 0000 0000 000000
2014-02-19 00:57:23,0.29,3.50,0.00,20.85,26.09,29.07,6.17,32.25,1034.19,2042.00,2332.78,2440.08,2643.24,349.81,332.18,15.35,0000 0000 0000 0000 000000
2014-02-19 00:58:23,0.21,3.50,0.00,20.85,26.08,29.04,6.27,32.33,1034.15,2042.00,2332.30,2439.89,2643.08,350.29,332.54,15.36,0000 0000 0000 0000 000000
2014-02-19 00:59:24,0.23,3.50,0.00,20.85,26.08,29.07,6.17,32.13,1034.17,2042.00,2331.97,2439.41,2642.78,350.19,332.40,15.36,0000 0000 0000 0000 000000
2014-02-19 01:00:24,0.31,3.50,0.00,20.84,26.07,29.05,6.09,32.29,1034.18,2042.00,2331.40,2439.15,2642.32,349.57,331.83,15.37,0000 0000 0000 0000 000000
2014-02-19 01:01:24,0.30,3.50,0.00,20.84,26.07,29.11,6.11,32.13,1034.16,2042.00,2331.08,2438.93,2642.11,349.69,331.69,15.37,0000 0000 0000 0000 000000
2014-02-19 01:02:24,0.22,3.50,0.00,20.84,26.07,29.09,6.03,32.25,1034.13,2042.00,2330.51,2438.42,2641.91,349.34,331.34,15.38,0000 0000 0000 0000 000000
2014-02-19 01:03:25,0.32,3.50,0.00,20.84,26.07,29.11,6.17,32.29,1034.10,2042.01,2330.13,2438.15,2641.44,349.85,331.98,15.39,0000 0000 0000 0000 000000
2014-02-19 01:04:25,0.28,3.51,0.00,20.84,26.07,29.04,6.22,31.92,1034.11,2042.01,2329.54,2437.95,2641.15,350.24,331.94,15.39,0000 0000 0000 0000 000000
2014-02-19 01:05:25,0.27,3.51,0.00,20.84,26.07,29.02,6.02,32.08,1034.13,2042.02,2329.19,2437.46,2640.85,349.45,331.46,15.40,0000 0000 0000 0000 000000
2014-02-19 01:06:25,0.31,3.51,0.00,20.84,26.07,29.06,6.19,32.17,1034.13,2042.00,2328.72,2437.16,2640.35,349.97,332.01,15.40,0000 0000 0000 0000 000000
2014-02-19 01:07:26,0.27,3.51,0.00,20.84,26.07,29.05,6.21,32.13,1034.09,2042.01,2328.26,2436.91,2640.12,349.50,331.98,15.41,0000 0000 0000 0000 000000
2014-02-19 01:08:26,0.27,3.51,0.00,20.84,26.07,29.05,6.13,32.25,1034.04,2042.01,2327.84,2436.40,2639.71,349.59,331.90,15.42,0000 0000 0000 0000 000000
2014-02-19 01:09:26,0.34,3.52,0.00,20.85,26.07,29.00,6.25,32.08,1033.99,2042.01,2327.33,2436.14,2639.26,350.14,332.32,15.42,0000 0000 0000 0000 000000
2014-02-19 01:10:27,0.27,3.52,0.00,20.86,26.07,29.01,6.22,32.00,1034.07,2042.02,2326.95,2435.97,2639.05,349.32,332.04,15.43,0000 0000 0000 0000 000000
2014-02-19 01:11:27,0.24,3.52,0.00,20.85,26.06,29.01,6.20,32.25,1034.12,2042.04,2326.38,2435.51,2638.64,350.16,332.11,15.43,0000 0000 0000 0000 000000
2014-02-19 01:12:27,0.37,3.52,0.00,20.85,26.05,29.00,6.14,32.04,1034.08,2042.05,2326.11,2435.18,2638.24,350.07,332.01,15.44,0000 0000 0000 0000 000000
2014-02-19 01:13:27,0.25,3.52,0.00,20.85,26.05,29.00,6.17,32.04,1034.11,2042.03,2325.63,2435.03,2638.03,349.90,332.20,15.45,0000 0000 0000 0000 000000
2014-02-19 01:14:28,0.22,3.52,0.00,20.85,26.05,28.97,6.24,32.17,1034.12,2042.03,2325.23,2434.60,2637.47,350.01,331.97,15.45,0000 0000 0000 0000 000000
2014-02-19 01:15:28,0.31,3.53,0.00,20.85,26.05,28.95,6.06,32.21,1034.06,2042.04,2325.04,2434.22,2637.16,349.50,331.46,15.46,0000 0000 0000 0000 000000
2014-02-19 01:16:28,0.26,3.53,0.00,20.87,26.05,29.02,6.07,32.17,1034.00,2042.02,2324.55,2434.05,2636.74,349.88,331.78,15.46,0000 0000 0000 0000 000000
2014-02-19 01:17:29,0.23,3.53,0.00,20.87,26.05,29.03,6.42,32.17,1033.97,2042.00,2324.20,2433.67,2636.28,351.16,333.29,15.47,0000 0000 0000 0000 000000
2014-02-19 01:18:29,0.30,3.53,0.00,20.87,26.05,29.03,6.31,32.17,1033.88,2042.04,2323.83,2433.26,2636.09,350.39,332.20,15.47,0000 0000 0000 0000 000000
2014-02-19 01:19:29,0.29,3.53,0.00,20.87,26.05,29.01,6.27,32.17,1033.89,2042.05,2323.33,2433.08,2635.76,350.41,332.47,15.48,0000 0000 0000 0000 000000
2014-02-19 01:20:30,0.26,3.53,0.00,20.86,26.05,28.99,6.07,32.25,1033.81,2042.05,2323.09,2432.82,2635.29,349.80,331.65,15.49,0000 0000 0000 0000 000000
2014-02-19 01:21:30,0.26,3.53,0.00,20.86,26.05,28.96,6.23,32.17,1033.78,2042.07,2322.61,2432.36,2635.03,350.02,331.74,15.49,0000 0000 0000 0000 000000
2014-02-19 01:22:30,0.30,3.54,0.00,20.87,26.05,28.90,6.38,32.21,1033.71,2042.04,2322.22,2432.12,2634.49,350.84,332.60,15.50,0000 0000 0000 0000 000000
2014-02-19 01:23:30,0.26,3.54,0.00,20.87,26.05,28.91,6.32,32.17,1033.74,2042.03,2321.77,2431.97,2634.19,350.85,332.61,15.50,0000 0000 0000 0000 000000
2014-02-19 01:24:31,0.22,3.54,0.00,20.87,26.06,28.94,6.16,32.29,1033.73,2042.02,2321.29,2431.47,2633.99,350.18,331.47,15.51,0000 0000 0000 0000 000000
2014-02-19 01:25:31,0.31,3.54,0.00,20.88,26.06,28.92,6.16,32.13,1033.72,2042.01,2320.85,2431.17,2633.51,349.19,331.34,15.52,0000 0000 0000 0000 000000
2014-02-19 01:26:31,0.28,3.54,0.00,20.88,26.07,28.96,6.22,32.25,1033.71,2042.02,2320.32,2430.93,2633.20,349.79,331.94,15.52,0000 0000 0000 0000 000000
2014-02-19 01:27:32,0.29,3.54,0.00,20.88,26.07,29.03,6.19,32.17,1033.72,2042.02,2319.95,2430.42,2632.92,350.16,331.49,15.53,0000 0000 0000 0000 000000
2014-02-19 01:28:32,0.32,3.55,0.00,20.88,26.07,28.99,6.33,32.33,1033.71,2042.01,2319.39,2430.15,2632.39,350.40,332.17,15.53,0000 0000 0000 0000 000000
2014-02-19 01:29:32,0.29,3.55,0.00,20.87,26.07,28.96,6.20,32.33,1033.71,2042.01,2318.96,2429.80,2632.13,349.49,331.31,15.54,0000 0000 0000 0000 000000
2014-02-19 01:30:33,0.31,3.55,0.00,20.87,26.07,29.04,6.17,32.29,1033.71,2042.00,2318.38,2429.30,2631.68,348.96,331.22,15.54,0000 0000 0000 0000 000000
2014-02-19 01:31:33,0.34,3.55,0.00,20.87,26.07,29.06,6.37,32.33,1033.71,2042.00,2317.87,2429.09,2631.26,350.86,332.61,15.55,0000 0000 0000 0000 000000
2014-02-19 01:32:33,0.29,3.55,0.00,20.87,26.07,28.98,6.13,32.33,1033.71,2042.01,2317.34,2428.72,2631.04,349.69,331.51,15.56,0000 0000 0000 0000 000000
2014-02-19 01:33:33,0.32,3.56,0.00,20.87,26.07,29.05,6.23,32.25,1033.71,2042.01,2316.83,2428.28,2630.56,350.11,331.46,15.56,0000 0000 0000 0000 000000
2014-02-19 01:34:34,0.33,3.56,0.00,20.87,26.07,29.00,6.06,32.29,1033.71,2042.00,2316.31,2428.09,2630.21,349.71,331.69,15.57,0000 0000 0000 0000 000000
2014-02-19 01:35:34,0.26,3.56,0.00,20.87,26.07,28.98,6.23,32.25,1033.71,2042.00,2315.84,2427.66,2629.86,350.48,332.13,15.57,0000 0000 0000 0000 000000
2014-02-19 01:36:34,0.34,3.56,0.00,20.87,26.07,28.97,6.19,32.21,1033.71,2042.01,2315.30,2427.23,2629.35,350.38,332.15,15.58,0000 0000 0000 0000 000000
2014-02-19 01:37:35,0.38,3.56,0.00,20.88,26.07,28.97,6.29,32.25,1033.71,2042.02,2314.63,2426.83,2629.03,350.40,331.62,15.59,0000 0000 0000 0000 000000
2014-02-19 01:38:35,0.38,3.56,0.00,20.89,26.07,28.94,6.16,32.29,1033.71,2042.03,2314.10,2426.32,2628.44,350.26,332.16,15.59,0000 0000 0000 0000 000000
2014-02-19 01:39:35,0.40,3.57,0.00,20.89,26.07,28.92,6.23,32.13,1033.71,2042.02,2313.46,2426.05,2628.12,350.06,332.24,15.60,0000 0000 0000 0000 000000
2014-02-19 01:40:36,0.33,3.57,0.00,20.89,26.07,28.93,6.26,32.17,1033.71,2042.03,2313.00,2425.51,2627.59,349.27,330.88,15.60,0000 0000 0000 0000 000000
2014-02-19 01:41:36,0.39,3.57,0.00,20.89,26.07,29.00,6.23,32.17,1033.71,2042.03,2312.39,2425.18,2627.20,349.92,331.56,15.61,0000 0000 0000 0000 000000
2014-02-19 01:42:36,0.35,3.57,0.00,20.89,26.07,28.98,6.22,32.13,1033.71,2042.02,2311.77,2424.72,2626.69,350.05,332.20,15.62,0000 0000 0000 0000 000000
2014-02-19 01:43:36,0.36,3.58,0.00,20.89,26.07,28.98,6.27,32.13,1033.71,2042.01,2311.28,2424.26,2626.26,350.29,331.97,15.62,0000 0000 0000 0000 000000
2014-02-19 01:44:37,0.35,3.58,0.00,20.89,26.07,28.98,6.20,32.04,1033.71,2042.02,2310.71,2424.05,2626.03,349.47,331.30,15.63,0000 0000 0000 0000 000000
2014-02-19 01:45:37,0.30,3.58,0.00,20.89,26.07,28.97,6.25,32.04,1033.71,2042.02,2310.23,2423.56,2625.51,349.40,331.13,15.63,0000 0000 0000 0000 000000
2014-02-19 01:46:37,0.36,3.58,0.00,20.89,26.06,28.97,6.08,32.00,1033.71,2042.01,2309.61,2423.20,2625.17,348.84,330.67,15.64,0000 0000 0000 0000 000000
2014-02-19 01:47:37,0.30,3.59,0.00,20.89,26.06,28.97,6.17,32.00,1033.69,2042.02,2309.21,2422.98,2624.78,350.05,331.82,15.64,0000 0000 0000 0000 000000
2014-02-19 01:48:38,0.30,3.59,0.00,20.89,26.06,28.94,6.16,32.13,1033.69,2042.02,2308.65,2422.47,2624.30,350.20,332.27,15.65,0000 0000 0000 0000 000000
2014-02-19 01:49:38,0.34,3.59,0.00,20.88,26.06,28.95,6.03,32.08,1033.67,2042.02,2308.22,2422.17,2624.03,350.28,332.04,15.66,0000 0000 0000 0000 000000
2014-02-19 01:50:38,0.29,3.59,0.00,20.88,26.05,28.98,5.95,32.08,1033.67,2042.00,2307.65,2421.81,2623.49,349.11,330.78,15.66,0000 0000 0000 0000 000000
2014-02-19 01:51:39,0.34,3.59,0.00,20.87,26.05,28.98,6.30,32.17,1033.66,2042.00,2307.18,2421.30,2623.17,351.21,332.74,15.67,0000 0000 0000 0000 000000
2014-02-19 01:52:39,0.34,3.60,0.00,20.88,26.05,28.99,6.35,32.13,1033.59,2042.02,2306.57,2421.07,2622.98,350.67,332.39,15.67,0000 0000 0000 0000 000000
2014-02-19 01:53:39,0.30,3.60,0.00,20.88,26.05,28.98,6.19,32.38,1033.52,2042.01,2306.18,2420.57,2622.47,350.43,331.94,15.68,0000 0000 0000 0000 000000
2014-02-19 01:54:40,0.36,3.60,0.00,20.89,26.05,28.95,6.14,32.33,1033.51,2042.03,2305.59,2420.20,2622.15,350.02,331.73,15.69,0000 0000 0000 0000 000000
2014-02-19 01:55:40,0.33,3.60,0.00,20.89,26.05,28.97,6.08,32.25,1033.44,2042.05,2305.20,2419.97,2621.71,349.76,331.38,15.69,0000 0000 0000 0000 000000
2014-02-19 01:56:40,0.30,3.60,0.00,20.88,26.05,28.95,6.38,32.21,1033.45,2042.04,2304.70,2419.45,2621.27,350.17,331.86,15.70,0000 0000 0000 0000 000000
2014-02-19 01:57:40,0.33,3.61,0.00,20.89,26.05,28.95,6.36,32.04,1033.42,2042.04,2304.24,2419.16,2621.02,350.82,332.46,15.70,0000 0000 0000 0000 000000
2014-02-19 01:58:40,0.29,3.61,0.00,20.89,26.05,28.94,6.15,32.08,1033.39,2042.02,2303.66,2418.78,2620.49,349.89,331.57,15.71,0000 0000 0000 0000 000000
2014-02-19 01:59:41,0.34,3.61,0.00,20.89,26.05,28.96,6.27,32.08,1033.40,2042.01,2303.23,2418.29,2620.16,349.56,331.19,15.71,0000 0000 0000 0000 000000
2014-02-19 02:00:41,0.34,3.61,0.00,20.89,26.05,28.98,6.05,32.08,1033.29,2042.01,2302.68,2418.05,2619.75,349.48,331.28,15.72,0000 0000 0000 0000 000000
2014-02-19 02:01:41,0.32,3.61,0.00,20.89,26.05,28.92,6.12,32.21,1033.26,2042.05,2302.24,2417.58,2619.30,349.55,331.15,15.73,0000 0000 0000 0000 000000
2014-02-19 02:02:42,0.38,3.61,0.00,20.89,26.05,28.94,6.07,32.00,1033.28,2042.05,2301.71,2417.22,2619.06,350.03,331.71,15.73,0000 0000 0000 0000 000000
2014-02-19 02:03:42,0.29,3.62,0.00,20.89,26.05,28.90,6.19,32.21,1033.23,2042.03,2301.25,2417.07,2618.53,350.09,331.70,15.74,0000 0000 0000 0000 000000
2014-02-19 02:04:42,0.24,3.62,0.00,20.89,26.05,28.91,6.28,32.25,1033.26,2042.04,2300.74,2416.60,2618.19,350.37,331.98,15.74,0000 0000 0000 0000 000000
2014-02-19 02:05:43,0.38,3.62,0.00,20.90,26.05,28.95,6.18,32.21,1033.24,2042.04,2300.27,2416.22,2617.84,350.04,331.66,15.75,0000 0000 0000 0000 000000
2014-02-19 02:06:43,0.30,3.62,0.00,20.91,26.05,28.97,6.05,32.17,1033.23,2042.03,2299.72,2415.99,2617.33,349.75,331.36,15.76,0000 0000 0000 0000 000000
2014-02-19 02:07:43,0.33,3.62,0.00,20.91,26.05,28.92,6.28,32.38,1033.22,2042.05,2299.25,2415.45,2617.07,350.32,331.91,15.76,0000 0000 0000 0000 000000
2014-02-19 02:08:43,0.36,3.63,0.00,20.91,26.05,28.95,6.33,32.29,1033.23,2042.05,2298.69,2415.16,2616.55,350.10,331.95,15.77,0000 0000 0000 0000 000000
2014-02-19 02:09:44,0.30,3.63,0.00,20.91,26.05,28.89,6.17,32.17,1033.23,2042.03,2298.25,2414.90,2616.20,349.59,331.39,15.77,0000 0000 0000 0000 000000
2014-02-19 02:10:44,0.29,3.63,0.00,20.92,26.05,28.89,6.23,32.21,1033.22,2042.03,2297.85,2414.37,2615.93,350.41,331.81,15.78,0000 0000 0000 0000 000000
2014-02-19 02:11:44,0.33,3.63,0.00,20.92,26.05,28.94,6.23,32.29,1033.22,2042.03,2297.32,2414.12,2615.38,350.50,331.99,15.79,0000 0000 0000 0000 000000
2014-02-19 02:12:44,0.32,3.63,0.00,20.92,26.05,28.93,6.10,32.33,1033.23,2042.07,2296.86,2413.62,2615.09,349.94,331.32,15.79,0000 0000 0000 0000 000000
2014-02-19 02:13:45,0.37,3.64,0.00,20.92,26.05,28.87,6.12,32.25,1033.22,2042.06,2296.32,2413.22,2614.58,350.10,331.58,15.80,0000 0000 0000 0000 000000
2014-02-19 02:14:45,0.31,3.64,0.00,20.92,26.05,28.87,6.28,32.29,1033.22,2042.06,2295.82,2412.90,2614.16,350.22,331.80,15.80,0000 0000 0000 0000 000000
2014-02-19 02:15:45,0.38,3.64,0.00,20.92,26.05,28.87,6.28,32.17,1033.22,2042.04,2295.21,2412.37,2613.52,349.94,331.84,15.81,0000 0000 0000 0000 000000
2014-02-19 02:16:46,0.40,3.64,0.00,20.92,26.05,28.89,6.10,32.13,1033.22,2042.03,2294.51,2412.10,2613.16,350.55,332.11,15.81,0000 0000 0000 0000 000000
2014-02-19 02:17:46,0.33,3.64,0.00,20.92,26.05,28.89,6.36,32.04,1033.22,2042.02,2294.04,2411.58,2612.62,350.67,331.87,15.82,0000 0000 0000 0000 000000
2014-02-19 02:18:46,0.41,3.65,0.00,20.92,26.05,28.88,6.43,32.17,1033.22,2042.02,2293.44,2411.20,2612.21,350.53,332.66,15.83,0000 0000 0000 0000 000000
2014-02-19 02:19:47,0.31,3.65,0.00,20.92,26.05,28.82,6.16,32.13,1033.22,2042.01,2292.99,2410.85,2611.79,349.55,331.28,15.83,0000 0000 0000 0000 000000
2014-02-19 02:20:47,0.37,3.65,0.00,20.91,26.05,28.86,6.35,32.17,1033.22,2042.05,2292.39,2410.34,2611.30,350.11,331.68,15.84,0000 0000 0000 0000 000000
2014-02-19 02:21:47,0.39,3.65,0.00,20.92,26.05,28.90,6.29,32.08,1033.22,2042.04,2291.93,2410.02,2610.94,350.66,332.21,15.84,0000 0000 0000 0000 000000
2014-02-19 02:22:47,0.35,3.66,0.00,20.92,26.05,28.92,6.04,32.08,1033.22,2042.03,2291.35,2409.48,2610.37,349.54,331.15,15.85,0000 0000 0000 0000 000000
2014-02-19 02:23:48,0.36,3.66,0.00,20.92,26.05,28.88,6.00,32.29,1033.22,2042.02,2290.85,2409.17,2610.11,349.72,331.33,15.86,0000 0000 0000 0000 000000
2014-02-19 02:24:48,0.30,3.66,0.00,20.92,26.05,28.89,6.28,32.04,1033.20,2042.01,2290.30,2408.84,2609.59,349.97,331.55,15.86,0000 0000 0000 0000 000000
2014-02-19 02:25:48,0.34,3.66,0.00,20.92,26.05,28.88,6.18,31.96,1033.22,2042.02,2289.73,2408.36,2609.21,349.94,331.54,15.87,0000 0000 0000 0000 000000
2014-02-19 02:26:48,0.36,3.66,0.00,20.91,26.05,28.86,6.25,32.29,1033.21,2042.01,2289.24,2408.13,2608.89,350.15,331.74,15.87,0000 0000 0000 0000 000000
2014-02-19 02:27:48,0.30,3.66,0.00,20.91,26.05,28.84,6.10,32.29,1033.22,2042.03,2288.60,2407.77,2608.37,349.13,330.77,15.88,0000 0000 0000 0000 000000
2014-02-19 02:28:49,0.39,3.67,0.00,20.92,26.05,28.85,6.37,32.42,1033.14,2042.05,2288.16,2407.29,2608.09,349.51,330.85,15.88,0000 0000 0000 0000 000000
2014-02-19 02:29:49,0.34,3.67,0.00,20.92,26.05,28.82,6.45,32.33,1033.15,2042.02,2287.55,2406.96,2607.59,350.92,332.27,15.89,0000 0000 0000 0000 000000
2014-02-19 02:30:49,0.36,3.67,0.00,20.92,26.05,28.87,6.07,32.13,1033.09,2042.03,2287.10,2406.41,2607.20,349.78,331.33,15.90,0000 0000 0000 0000 000000
2014-02-19 02:31:50,0.37,3.67,0.00,20.92,26.05,28.84,6.09,32.17,1033.11,2042.02,2286.46,2406.14,2606.87,349.53,331.11,15.90,0000 0000 0000 0000 000000
2014-02-19 02:32:50,0.30,3.68,0.00,20.92,26.05,28.84,6.27,32.29,1032.96,2042.00,2286.00,2405.66,2606.35,349.94,331.45,15.91,0000 0000 0000 0000 000000
2014-02-19 02:33:50,0.38,3.68,0.00,20.92,26.05,28.88,6.18,32.00,1032.90,2042.00,2285.39,2405.24,2606.01,350.15,331.82,15.91,0000 0000 0000 0000 000000
2014-02-19 02:34:50,0.34,3.68,0.00,20.92,26.05,28.89,6.20,32.13,1032.85,2042.00,2284.90,2405.03,2605.43,350.49,331.93,15.92,0000 0000 0000 0000 000000
2014-02-19 02:35:50,0.33,3.68,0.00,20.92,26.05,28.85,6.06,32.17,1032.80,2042.01,2284.35,2404.53,2605.16,349.25,330.75,15.93,0000 0000 0000 0000 000000